KOREASAT 7

Last updated on Jan. 21, 2021, 6:16 a.m. UTC

1 42691U 17023A   21020.89639575 -.00000353  00000-0  00000-0 0  9994
2 42691   0.0172  35.7593 0001258 224.8210 298.4884  1.00270564 13597
UTC
Height (km)
Latitude
Longitude
Inclination
Orbital Period
UTC large
Height (km)
Speed (km/s)
/
Latitude / Longitude
Inclination (degrees)
Orbital Period (minutes)
Azimuth
Elevation
Range (km)
Doppler Factor
iOS Compass Heading
iOS Angle

Next 30 passes for location: Hong Kong

Rise time Rise Azimuth (degrees) Set time Set Azimuth (degrees) Duration Max altitude (degrees)

No matching passes for this satellites